Flag for Germany Weather past 2 weeks in Greifswald, Mecklenburg-Western Pomerania, Germany

Now
69 °F

Passing clouds.


Feels Like: 69 °F
Forecast: 59 / 82 °F
Wind: 5 mph from Northwest

Location: Greifswald

Current Time: Jul 6, 2015 at 8:11:32 PM

Latest Report: Jul 6, 2015 at 8:00 PM


Visibility: 31 mi

Pressure: 30.06 "Hg

Humidity: 52%

Dew point: 50 °F

Location of GreifswaldLocation

Historic Weather in Greifswald — Graph

°F

Greifswald temperature yesterday

Maximum temperature yesterday: 86 °F (at 12:00 PM)
Minimum temperature yesterday: 70 °F (at 7:00 AM)
Average temperature yesterday: 79 °F

Past Weeks' High & Low Weather Summary

 TemperatureHumidityPressure
High91 °F (Jul 4, 4:00 PM)99% (Jun 26, 3:00 AM)30.35 "Hg (Jun 26, 3:00 AM)
Low51 °F (Jun 22, 4:00 AM)36% (Jul 3, 4:00 PM)29.61 "Hg (Jun 23, 4:00 AM)
Average64 °F73%30.07 "Hg
* Reported Jun 21 8:00 PM — Jul 6 7:00 PM, Greifswald, Weather by CustomWeather, © 2015

Note: Actual official high and low records may vary slightly from our data, if they occured in-between our weather recording intervals... More about our weather records

Advertising

Greifswald weather history for previous 24 hours

 ConditionsComfort  
Time TempWeatherWind HumidityBarometerVisibility
7:00 PM
Mon, Jul 6
70 °FPassing clouds.7 mph49%30.07 "Hg31 mi
6:00 PM71 °FPassing clouds.7 mph48%30.08 "Hg31 mi
4:00 PM71 °FPartly sunny.9 mph45%30.08 "Hg31 mi
3:00 PM71 °FScattered clouds.9 mph46%30.07 "Hg31 mi
2:00 PM72 °FPassing clouds.10 mph42%30.06 "Hg31 mi
1:00 PM73 °FScattered clouds.8 mph41%30.05 "Hg31 mi
12:00 PM69 °FScattered clouds.9 mph55%30.04 "Hg37 mi
11:00 AM68 °FScattered clouds.9 mph60%30.03 "Hg19 mi
10:00 AM67 °FScattered clouds.8 mph64%30.01 "Hg19 mi
9:00 AM65 °FPassing clouds.8 mph74%29.99 "Hg34 mi
8:00 AM64 °FOvercast.7 mph82%29.97 "Hg31 mi
7:00 AM64 °FOvercast.6 mph82%29.96 "Hg34 mi
6:00 AM66 °FOvercast.8 mph87%29.94 "Hg12 mi
4:00 AM69 °FOvercast.2 mph90%29.92 "Hg12 mi
3:00 AM69 °FOvercast.1 mph93%29.90 "Hg12 mi
2:00 AM69 °FOvercast.1 mph96%29.90 "Hg10 mi
1:00 AM69 °FThunderstorms. Overcast.1 mph95%29.91 "Hg12 mi
12:00 AM69 °FThundershowers. Overcast.2 mph92%29.93 "Hg3 mi
10:00 PM
Sun, Jul 5
75 °FOvercast.5 mph81%29.88 "Hg9 mi
9:00 PM76 °FOvercast.2 mph79%29.91 "Hg9 mi
8:00 PM80 °FPartly sunny.2 mph71%29.90 "Hg11 mi
Weather by CustomWeather, © 2015

See weather overviewHow to use our weather pages